Lexington Weather

Lexington, Massachusetts, USA

39°F
4/22/2024 7:39am 
  • Lexington Conditions: Clear
  • Temperature: 39.4°F / 4.1°CWarmer 2.5°F than last hour.
  • Dew Point: 30.0°FIncreased 1.2°Fsince last hour.
  • Relative Humidity: 69%Decreased 3.0% since last hour.
  • Wind: Wind from NNW NNW 2 mph, 10-min avg: Calm, gust: 2 mph
  • Barometer: 29.94 inRising 0.02  inHg/hr Rising Slowly
  • Visibility: 10 miles
  • Rain Today: 0.00 in
  •   

Regional Weather Roundup
for Boston, MA

        
000
ASUS41 KBOX 191010
RWRBOX

REGIONAL WEATHER ROUNDUP
NATIONAL WEATHER SERVICE BOSTON/NORTON MA
600 AM EDT FRI APR 19 2024

NOTE:  "FAIR" INDICATES FEW OR NO CLOUDS BELOW 12,000 FEET WITH NO 
SIGNIFICANT WEATHER AND/OR OBSTRUCTIONS TO VISIBILITY.

MAZALL-191100-
EASTERN MASSACHUSETTS
  
CITY           SKY/WX    TMP DP  RH WIND       PRES   REMARKS
BOSTON         CLOUDY    44  40  85 E6        30.19F                  
BEVERLY        CLOUDY    42  40  92 CALM      30.19F                  
LAWRENCE       MOCLDY    43  40  89 E3        30.20F                  
BEDFORD        CLOUDY    43  41  93 E5        30.18F                  
NORWOOD        CLOUDY    46  41  82 E5        30.19F                  
MARSHFIELD     CLOUDY    45  39  81 NE6       30.19S                  
PLYMOUTH       CLOUDY    44  40  85 E6        30.17F                  
TAUNTON        CLOUDY    45  41  86 CALM      30.18F                  
NEW BEDFORD    CLOUDY    44  41  89 NE7       30.17F                  
$$

MAZALL-191100-
CAPE COD AND THE ISLANDS
  
CITY           SKY/WX    TMP DP  RH WIND       PRES   REMARKS
FALMOUTH       CLOUDY    43  41  93 E8        30.19R                  
HYANNIS        CLOUDY    42  40  92 NE3       30.17S                  
CHATHAM        CLOUDY    44  40  85 NE6       30.19S                  
PROVINCETOWN   CLOUDY    44  41  89 E7        30.20S                  
NANTUCKET      CLOUDY    43  41  93 E12       30.17S                  
MARTHAS VNYRD  LGT RAIN  44  42  93 NE8       30.18R                  
$$
 
MAZALL-191100-
CENTRAL AND WESTERN MASSACHUSETTS
  
CITY           SKY/WX    TMP DP  RH WIND       PRES   REMARKS
WORCESTER      CLOUDY    41  38  89 NE3       30.16S                  
FITCHBURG      CLOUDY    43  39  86 CALM      30.19S                  
ORANGE         CLOUDY    43  38  82 CALM      30.18R                  
SPRINGFIELD    CLOUDY    44  38  79 CALM      30.16R                  
WESTFIELD      CLOUDY    44  39  82 NW3       30.18R                  
NORTH ADAMS    CLOUDY    45  35  68 E8        30.16R                  
PITTSFIELD     CLOUDY    41  33  73 CALM      30.14R                  
$$
 
RIZALL-191100-
RHODE ISLAND
  
CITY           SKY/WX    TMP DP  RH WIND       PRES   REMARKS
PROVIDENCE     MOCLDY    43  41  93 NE6       30.18F                  
NEWPORT        CLOUDY    43  39  86 NE8       30.16F                  
BLOCK ISLAND   CLOUDY    43  40  89 NE9       30.17S                  
SMITHFIELD     CLOUDY    42  42 100 NE5       30.18S                  
WESTERLY       MOCLDY    42  39  89 NE3       30.17R                  
$$
 
CTZALL-191100-
CONNECTICUT
  
CITY           SKY/WX    TMP DP  RH WIND       PRES   REMARKS
BRADLEY INTL   CLOUDY    46  39  76 NW5       30.18R                  
HARTFORD       CLOUDY    45  39  79 NW3       30.18R                  
PLAINVILLE     CLOUDY    43  41  93 CALM      30.19R                  
BRIDGEPORT     CLOUDY    46  38  73 N6        30.19R                  
DANBURY        CLOUDY    45  37  73 CALM      30.19R                  
GROTON         CLOUDY    43  41  93 N6        30.17R                  
NEW HAVEN      CLOUDY    47  41  80 N6        30.18R                  
CHESTER        CLOUDY    43  41  93 NE5       30.17R                  
MERIDEN        CLOUDY    45  37  73 NW3       30.19R                  
WILLIMANTIC    CLOUDY    42  39  89 E3        30.18R                  
OXFORD         CLOUDY    41  38  89 N6        30.18R                  
$$

MEZ002-015-021-024-NHZ003-005-008-011-012-014-VTZ005-008-191100-
NORTHERN NEW ENGLAND
  
CITY           SKY/WX    TMP DP  RH WIND       PRES   REMARKS
PORTLAND ME    CLOUDY    44  39  82 W5        30.20F                  
BANGOR ME      PTCLDY    32  30  92 CALM      30.21R                  
CONCORD NH     CLOUDY    42  41  96 CALM      30.19F                  
MANCHESTER NH  CLOUDY    44  40  85 CALM      30.17F                  
NASHUA NH      CLOUDY    43  32  65 CALM      30.20S                  
PORTSMOUTH NH  CLOUDY    44  42  91 CALM      30.19S                  
JAFFREY NH     CLOUDY    41  37  86 CALM      30.16S                  
KEENE NH       CLOUDY    42  41  96 CALM      30.18R                  
BURLINGTON VT  CLOUDY    45  37  73 S9        30.11F                  
MT. WASHINGTON FRZ RAIN  27  25  93 S9          N/A  WCI  17          
$$

NYZ052-076-191100-
EASTERN NEW YORK
  
CITY           SKY/WX    TMP DP  RH WIND       PRES   REMARKS
ALBANY         CLOUDY    46  36  68 SE6       30.16R                  
NEW YORK CITY  CLOUDY    46  38  73 NE6       30.17R                  
$$
 
ANZALL-191100-
MARINE OBSERVATIONS
  
STATION/POSITION TIME  TEMP    WIND        PRES    VSBY  WAVE
                       AIR SEA DIR/SP/G                  HT/PER
                 (UTC) (F)     (DEG/KT/KT) (MB)    (MI)  (FT/S)
BOSTON BUOY      0950   44      60/  6/  8 1022.2F         2/11
BUZZARDS BAY     0900   45      60/ 14/ 15 1021.9S
NANTUCKET SOUND  0950   45 47   60/ 12/ 14 1021.6R         2/ 4
MASS BAY-STELLWA 0804   44 45   60/  4/  6 1022.9   1 7/8  2/11
ISLE OF SHOALS   0900   44        CALM     1022.3R
S OF BLOCK IS    0956      44                N/A           6/ 8
$$

......................KEY.........................
  SKY/WX - SKY CONDITION/PRESENT WEATHER
  TMP    - TEMPERATURE IN FAHRENHEIT
  DWPT   - DEWPOINT IN FAHRENHEIT
  RH     - RELATIVE HUMIDITY IN PERCENT
  WIND   - DIRECTION AND SPEED IN MPH
  PRES   - MEAN SEA LEVEL PRESSURE IN INCHES OF HG
  WCI    - WIND CHILL INDEX
  VSB    - VISIBILITY IN MILES
  HX     - HEAT INDEX
  TC     - TEMPERATURE IN CELSIUS
  VRB    - VARIABLE WIND DIRECTION
  N/A    - NOT AVAILABLE
  
      

Other recent Regional Weather Roundups

Mon Apr 22, 7:10am EDT

Mon Apr 22, 6:10am EDT

Mon Apr 22, 5:10am EDT

Mon Apr 22, 4:10am EDT

Mon Apr 22, 3:10am EDT

Mon Apr 22, 2:10am EDT

Mon Apr 22, 1:10am EDT

Mon Apr 22, 12:10am EDT

Sun Apr 21, 11:10pm EDT

Sun Apr 21, 10:10pm EDT

Sun Apr 21, 9:10pm EDT

Sun Apr 21, 8:10pm EDT

Sun Apr 21, 7:10pm EDT

Sun Apr 21, 6:10pm EDT

Sun Apr 21, 5:10pm EDT

Sun Apr 21, 4:10pm EDT

Sun Apr 21, 3:10pm EDT

Sun Apr 21, 2:10pm EDT

Sun Apr 21, 1:10pm EDT

Sun Apr 21, 12:10pm EDT

Sun Apr 21, 11:10am EDT

Sun Apr 21, 10:10am EDT

Sun Apr 21, 9:10am EDT

Sun Apr 21, 8:10am EDT

Sun Apr 21, 7:10am EDT

Sun Apr 21, 6:10am EDT

Sun Apr 21, 5:10am EDT

Sun Apr 21, 4:10am EDT

Sun Apr 21, 3:10am EDT

Sun Apr 21, 2:10am EDT

Sun Apr 21, 1:10am EDT

Sun Apr 21, 12:10am EDT

Sat Apr 20, 11:10pm EDT

Sat Apr 20, 10:10pm EDT

Sat Apr 20, 9:10pm EDT

Sat Apr 20, 8:10pm EDT

Sat Apr 20, 7:10pm EDT

Sat Apr 20, 6:10pm EDT

Sat Apr 20, 5:10pm EDT

Sat Apr 20, 4:10pm EDT

Sat Apr 20, 3:10pm EDT

Sat Apr 20, 2:10pm EDT

Sat Apr 20, 1:10pm EDT

Sat Apr 20, 12:10pm EDT

Sat Apr 20, 11:10am EDT

Sat Apr 20, 10:10am EDT

Sat Apr 20, 9:10am EDT

Sat Apr 20, 8:10am EDT

Sat Apr 20, 7:10am EDT

Sat Apr 20, 6:10am EDT

Sat Apr 20, 5:10am EDT

Sat Apr 20, 4:10am EDT

Sat Apr 20, 3:10am EDT

Sat Apr 20, 2:10am EDT

Sat Apr 20, 1:10am EDT

Sat Apr 20, 12:10am EDT

Fri Apr 19, 11:10pm EDT

Fri Apr 19, 10:10pm EDT

Fri Apr 19, 9:10pm EDT

Fri Apr 19, 8:10pm EDT

Fri Apr 19, 7:10pm EDT

Fri Apr 19, 6:10pm EDT

Fri Apr 19, 5:10pm EDT

Fri Apr 19, 4:10pm EDT

Fri Apr 19, 3:10pm EDT

Fri Apr 19, 2:10pm EDT

Fri Apr 19, 1:10pm EDT

Fri Apr 19, 12:10pm EDT

Fri Apr 19, 11:10am EDT

Fri Apr 19, 10:10am EDT

Fri Apr 19, 9:10am EDT

Fri Apr 19, 8:10am EDT

Fri Apr 19, 7:10am EDT

Fri Apr 19, 5:10am EDT

Fri Apr 19, 4:10am EDT

Fri Apr 19, 3:10am EDT

Fri Apr 19, 2:10am EDT

Fri Apr 19, 1:10am EDT

Fri Apr 19, 12:10am EDT

Thu Apr 18, 11:10pm EDT

Thu Apr 18, 10:10pm EDT

Thu Apr 18, 9:10pm EDT

Thu Apr 18, 8:10pm EDT

Thu Apr 18, 7:10pm EDT

Thu Apr 18, 6:10pm EDT

Thu Apr 18, 5:10pm EDT

Thu Apr 18, 4:10pm EDT

Thu Apr 18, 3:10pm EDT

Thu Apr 18, 2:10pm EDT

Thu Apr 18, 1:10pm EDT

Thu Apr 18, 12:10pm EDT

Thu Apr 18, 11:10am EDT

Thu Apr 18, 10:10am EDT

Thu Apr 18, 9:10am EDT

Thu Apr 18, 8:10am EDT

Thu Apr 18, 7:10am EDT

Thu Apr 18, 6:10am EDT

Thu Apr 18, 5:10am EDT

Thu Apr 18, 4:10am EDT

Thu Apr 18, 3:10am EDT

Thu Apr 18, 2:10am EDT

Thu Apr 18, 1:10am EDT

Thu Apr 18, 12:10am EDT

Wed Apr 17, 11:10pm EDT

Wed Apr 17, 10:10pm EDT

Wed Apr 17, 9:10pm EDT

Wed Apr 17, 8:10pm EDT

Wed Apr 17, 7:10pm EDT

Wed Apr 17, 6:10pm EDT

Wed Apr 17, 5:10pm EDT

Wed Apr 17, 4:10pm EDT

Wed Apr 17, 3:10pm EDT

Wed Apr 17, 2:10pm EDT

Wed Apr 17, 1:10pm EDT

Wed Apr 17, 12:10pm EDT

Wed Apr 17, 11:10am EDT

Wed Apr 17, 10:10am EDT

Wed Apr 17, 9:10am EDT

Wed Apr 17, 8:10am EDT

Wed Apr 17, 7:10am EDT

Wed Apr 17, 6:10am EDT

Wed Apr 17, 5:10am EDT

Wed Apr 17, 4:10am EDT

Wed Apr 17, 3:10am EDT

Wed Apr 17, 2:10am EDT

Wed Apr 17, 1:10am EDT

Wed Apr 17, 12:10am EDT

Tue Apr 16, 11:10pm EDT

Tue Apr 16, 10:10pm EDT

Tue Apr 16, 9:10pm EDT

Tue Apr 16, 8:10pm EDT

Tue Apr 16, 7:10pm EDT

Tue Apr 16, 6:10pm EDT

Tue Apr 16, 5:10pm EDT

Tue Apr 16, 4:10pm EDT

Tue Apr 16, 3:10pm EDT

Tue Apr 16, 2:10pm EDT

Tue Apr 16, 1:10pm EDT

Tue Apr 16, 12:10pm EDT

Tue Apr 16, 11:10am EDT

Tue Apr 16, 10:10am EDT

Tue Apr 16, 9:10am EDT

Tue Apr 16, 8:10am EDT

Tue Apr 16, 7:10am EDT

Tue Apr 16, 6:10am EDT

Tue Apr 16, 5:10am EDT

Tue Apr 16, 4:10am EDT

Tue Apr 16, 3:10am EDT

Tue Apr 16, 2:10am EDT

Tue Apr 16, 1:10am EDT

Tue Apr 16, 12:10am EDT

Mon Apr 15, 11:10pm EDT

Mon Apr 15, 10:10pm EDT

Mon Apr 15, 9:10pm EDT

Mon Apr 15, 8:10pm EDT

Mon Apr 15, 7:10pm EDT

Mon Apr 15, 6:10pm EDT

Mon Apr 15, 5:10pm EDT

Mon Apr 15, 4:10pm EDT

Mon Apr 15, 3:10pm EDT

Mon Apr 15, 2:10pm EDT

Mon Apr 15, 1:10pm EDT

Mon Apr 15, 12:10pm EDT

Mon Apr 15, 11:10am EDT

Mon Apr 15, 10:10am EDT

Mon Apr 15, 9:10am EDT

Mon Apr 15, 8:10am EDT